Meteo pe oră la Abadzekhskaya

Astăzi, 5 August, Joi

Timp Temperatura Precipitaţii Vânt Presiune Umiditate
00:00 +19°C° 0.1 mm 2 m/s 713 mmHg 87%
01:00 +19°C° 0 mm 2 m/s 713 mmHg 86%
02:00 +20°C° 0 mm 1 m/s 713 mmHg 85%
03:00 +20°C° 0 mm 1 m/s 712 mmHg 84%
04:00 +20°C° 0 mm 1 m/s 712 mmHg 83%
05:00 +20°C° 0 mm 1 m/s 713 mmHg 83%
06:00 +20°C° 0 mm 1 m/s 713 mmHg 82%
07:00 +23°C° 0 mm 1 m/s 713 mmHg 74%
08:00 +25°C° 0 mm 1 m/s 713 mmHg 65%
09:00 +28°C° 0 mm 1 m/s 713 mmHg 57%
10:00 +29°C° 0 mm 1 m/s 713 mmHg 51%
11:00 +31°C° 0 mm 2 m/s 713 mmHg 46%
12:00 +32°C° 0 mm 2 m/s 713 mmHg 40%
13:00 +34°C° 0.1 mm 2 m/s 713 mmHg 39%
14:00 +34°C° 0.1 mm 2 m/s 712 mmHg 38%
15:00 +35°C° 0.1 mm 2 m/s 712 mmHg 37%
16:00 +34°C° 0 mm 2 m/s 712 mmHg 42%
17:00 +32°C° 0 mm 2 m/s 712 mmHg 47%
18:00 +31°C° 0 mm 2 m/s 711 mmHg 52%
19:00 +29°C° 0 mm 2 m/s 711 mmHg 57%
20:00 +27°C° 0 mm 2 m/s 711 mmHg 62%
21:00 +25°C° 0 mm 2 m/s 710 mmHg 67%
22:00 +24°C° 0 mm 2 m/s 710 mmHg 69%
23:00 +24°C° 0 mm 2 m/s 710 mmHg 70%

Mâine, 6 August, Vineri

Timp Temperatura Precipitaţii Vânt Presiune Umiditate
00:00 +23°C° 0 mm 2 m/s 710 mmHg 72%
01:00 +23°C° 0 mm 2 m/s 709 mmHg 72%
02:00 +21°C° 0 mm 2 m/s 709 mmHg 72%
03:00 +21°C° 0 mm 2 m/s 709 mmHg 72%
04:00 +21°C° 0 mm 2 m/s 709 mmHg 72%
05:00 +22°C° 0 mm 1 m/s 709 mmHg 72%
06:00 +22°C° 0 mm 1 m/s 709 mmHg 72%
07:00 +24°C° 0 mm 1 m/s 709 mmHg 65%
08:00 +27°C° 0 mm 1 m/s 709 mmHg 59%
09:00 +30°C° 0 mm 1 m/s 709 mmHg 52%
10:00 +31°C° 0 mm 1 m/s 709 mmHg 47%
11:00 +33°C° 0 mm 1 m/s 709 mmHg 42%
12:00 +35°C° 0 mm 2 m/s 709 mmHg 36%
13:00 +36°C° 0 mm 2 m/s 708 mmHg 34%
14:00 +37°C° 0 mm 2 m/s 708 mmHg 32%
15:00 +37°C° 0 mm 3 m/s 708 mmHg 30%
16:00 +36°C° 0 mm 3 m/s 707 mmHg 36%
17:00 +35°C° 0 mm 3 m/s 707 mmHg 41%
18:00 +33°C° 0 mm 3 m/s 707 mmHg 46%
19:00 +30°C° 0 mm 2 m/s 706 mmHg 52%
20:00 +28°C° 0 mm 2 m/s 706 mmHg 57%
21:00 +26°C° 0 mm 2 m/s 706 mmHg 63%
22:00 +26°C° 0 mm 2 m/s 706 mmHg 64%
23:00 +25°C° 0 mm 2 m/s 706 mmHg 65%

Poimâine, 7 August, Sâmbătă

Timp Temperatura Precipitaţii Vânt Presiune Umiditate
00:00 +25°C° 0 mm 2 m/s 706 mmHg 66%
01:00 +24°C° 0 mm 2 m/s 706 mmHg 66%
02:00 +24°C° 0 mm 1 m/s 706 mmHg 65%
03:00 +24°C° 0 mm 1 m/s 706 mmHg 64%
04:00 +24°C° 0 mm 1 m/s 706 mmHg 64%
05:00 +24°C° 0 mm 1 m/s 706 mmHg 64%
06:00 +24°C° 0 mm 1 m/s 706 mmHg 65%
07:00 +26°C° 0.1 mm 1 m/s 706 mmHg 60%
08:00 +28°C° 0.1 mm 1 m/s 707 mmHg 55%
09:00 +29°C° 0.1 mm 1 m/s 707 mmHg 50%
10:00 +31°C° 0 mm 2 m/s 707 mmHg 44%
11:00 +34°C° 0 mm 2 m/s 707 mmHg 38%
12:00 +36°C° 0 mm 2 m/s 707 mmHg 32%
13:00 +36°C° 0 mm 2 m/s 707 mmHg 33%
14:00 +36°C° 0 mm 2 m/s 707 mmHg 34%
15:00 +35°C° 0 mm 1 m/s 707 mmHg 34%
16:00 +32°C° 0.6 mm 2 m/s 707 mmHg 48%
17:00 +29°C° 0.6 mm 3 m/s 707 mmHg 61%
18:00 +26°C° 0.6 mm 4 m/s 707 mmHg 74%
19:00 +23°C° 0.9 mm 4 m/s 707 mmHg 77%
20:00 +22°C° 0.9 mm 4 m/s 708 mmHg 81%
21:00 +21°C° 0.9 mm 4 m/s 708 mmHg 84%
22:00 +21°C° 0.3 mm 4 m/s 708 mmHg 82%
23:00 +22°C° 0.3 mm 3 m/s 708 mmHg 80%

8 August, Duminică

Timp Temperatura Precipitaţii Vânt Presiune Umiditate
00:00 +22°C° 0.3 mm 3 m/s 708 mmHg 78%
01:00 +22°C° 0 mm 3 m/s 708 mmHg 77%
02:00 +21°C° 0 mm 2 m/s 708 mmHg 76%
03:00 +21°C° 0 mm 2 m/s 709 mmHg 75%
04:00 +21°C° 0.1 mm 2 m/s 709 mmHg 75%
05:00 +22°C° 0.1 mm 1 m/s 709 mmHg 74%
06:00 +22°C° 0.1 mm 1 m/s 710 mmHg 73%
07:00 +24°C° 0.1 mm 1 m/s 710 mmHg 70%
08:00 +25°C° 0.1 mm 1 m/s 710 mmHg 66%
09:00 +24°C° 0.1 mm 0 m/s 711 mmHg 62%
10:00 +28°C° 0.1 mm 1 m/s 711 mmHg 56%
11:00 +29°C° 0.1 mm 1 m/s 711 mmHg 50%
12:00 +31°C° 0.1 mm 1 m/s 711 mmHg 43%
13:00 +31°C° 0.1 mm 1 m/s 711 mmHg 42%
14:00 +32°C° 0.1 mm 1 m/s 711 mmHg 41%
15:00 +32°C° 0.1 mm 2 m/s 711 mmHg 39%
16:00 +32°C° 0.1 mm 2 m/s 711 mmHg 44%
17:00 +31°C° 0.1 mm 2 m/s 711 mmHg 48%
18:00 +30°C° 0.1 mm 2 m/s 711 mmHg 52%
19:00 +27°C° 3.5 mm 2 m/s 712 mmHg 66%
20:00 +23°C° 3.5 mm 2 m/s 712 mmHg 80%
21:00 +19°C° 3.5 mm 2 m/s 713 mmHg 94%
22:00 +19°C° 0.1 mm 2 m/s 712 mmHg 93%
23:00 +19°C° 0.1 mm 2 m/s 712 mmHg 92%

9 August, Luni

Timp Temperatura Precipitaţii Vânt Presiune Umiditate
00:00 +19°C° 0.1 mm 2 m/s 712 mmHg 91%
01:00 +19°C° 0 mm 2 m/s 712 mmHg 90%
02:00 +19°C° 0 mm 2 m/s 712 mmHg 89%
03:00 +19°C° 0 mm 2 m/s 712 mmHg 88%
04:00 +19°C° 0 mm 2 m/s 712 mmHg 87%
05:00 +19°C° 0 mm 2 m/s 712 mmHg 86%
06:00 +19°C° 0 mm 2 m/s 712 mmHg 85%
07:00 +23°C° 0 mm 1 m/s 713 mmHg 75%
08:00 +26°C° 0 mm 1 m/s 713 mmHg 65%
09:00 +28°C° 0 mm 1 m/s 713 mmHg 55%
10:00 +30°C° 0 mm 1 m/s 713 mmHg 50%
11:00 +31°C° 0 mm 2 m/s 713 mmHg 45%
12:00 +32°C° 0 mm 2 m/s 713 mmHg 40%
13:00 +32°C° 0.1 mm 2 m/s 713 mmHg 40%
14:00 +34°C° 0.1 mm 2 m/s 713 mmHg 39%
15:00 +34°C° 0.1 mm 2 m/s 713 mmHg 39%
16:00 +32°C° 0.1 mm 2 m/s 713 mmHg 44%
17:00 +31°C° 0.1 mm 2 m/s 713 mmHg 49%
18:00 +30°C° 0.1 mm 1 m/s 713 mmHg 54%
19:00 +29°C° 0 mm 1 m/s 713 mmHg 57%
20:00 +27°C° 0 mm 2 m/s 713 mmHg 61%
21:00 +25°C° 0 mm 2 m/s 713 mmHg 65%
22:00 +24°C° 0 mm 2 m/s 713 mmHg 67%
23:00 +23°C° 0 mm 2 m/s 713 mmHg 69%

10 August, Marţi

Timp Temperatura Precipitaţii Vânt Presiune Umiditate
00:00 +21°C° 0 mm 2 m/s 713 mmHg 71%
01:00 +21°C° 0 mm 2 m/s 713 mmHg 73%
02:00 +20°C° 0 mm 2 m/s 713 mmHg 75%
03:00 +21°C° 0 mm 1 m/s 713 mmHg 76%
04:00 +21°C° 0 mm 1 m/s 713 mmHg 76%
05:00 +21°C° 0 mm 1 m/s 713 mmHg 75%
06:00 +21°C° 0 mm 1 m/s 713 mmHg 75%
07:00 +23°C° 0 mm 1 m/s 713 mmHg 65%
08:00 +26°C° 0 mm 1 m/s 713 mmHg 56%
09:00 +28°C° 0 mm 1 m/s 713 mmHg 47%
10:00 +29°C° 0 mm 1 m/s 713 mmHg 42%
11:00 +31°C° 0 mm 2 m/s 713 mmHg 38%
12:00 +32°C° 0 mm 2 m/s 713 mmHg 34%
13:00 +32°C° 0 mm 2 m/s 713 mmHg 34%
14:00 +34°C° 0 mm 2 m/s 712 mmHg 33%
15:00 +34°C° 0 mm 2 m/s 712 mmHg 33%
16:00 +32°C° 0 mm 2 m/s 712 mmHg 38%
17:00 +31°C° 0 mm 2 m/s 711 mmHg 43%
18:00 +30°C° 0 mm 1 m/s 711 mmHg 48%
19:00 +28°C° 0 mm 1 m/s 711 mmHg 52%
20:00 +26°C° 0 mm 1 m/s 711 mmHg 55%
21:00 +24°C° 0 mm 1 m/s 711 mmHg 58%
22:00 +23°C° 0.1 mm 1 m/s 711 mmHg 62%
23:00 +23°C° 0.1 mm 1 m/s 711 mmHg 67%
Arată mai mult

Formular de consimțământ

Meteoprog și furnizorii noștri de servicii pot stoca și accesa date personale, precum cookies, identificatori de dispozitiv sau alte tehnologii similare pe dispozitivul dumneavoastră și procesa astfel de date pentru a personaliza conținutul și reclamele, dar și pentru a oferi caracteristici de social media și pentru a analiza traficul.

  • Stocarea și/sau accesarea informațiilor pe dispozitivul dumneavoastră

    Cookies, identificatori de dispozitiv sau alte informații pot fi stocate sau accesate pe dispozitiv în scopurile indicate mai sus.

  • Reclame și conținut personalizat, evaluarea reclamelor și a conținutului, informații despre audiențe și dezvoltarea produselor

    Reclamele și conținutul pot fi personalizate pe baza unui profil. Pot fi adăugate date suplimentare pentru a personaliza mai bine reclamele și conținutul. Performanța reclamelor și conținutului poate fi măsurată. Pot fi obținute informații despre utilizatorii care au văzut reclamele și conținutul. Aceste date pot fi utilizate pentru a dezvolta sau îmbunătăți experiența utilizatorilor, sistemele și software-ul.

Dând clic pe ‘Sunt de acord’, permiteți utilizarea cookie-urilor menționate, a identificatorilor de dispozitiv, balizelor web sau altor tehnologii similare. Setările pot fi modificate din browser-ul dispozitivului dumneavoastră.

În anumite scopuri, interesele legitime pot prima asupra consimțământului. Puteți citi mai multe informații în acest sens în Politica privind Confidențialitatea Datelor și Cookie.